Location: Lafig�re
(44.4503°N, 4.0357°E)
Time: 14:46:11
(UTC+00:00)

Vanguard 2 Rocket - Pass Details

Date: 02 February 2021
Orbit: 554 x 3325 km, 32.9° (Epoch: 06 March)

Event Time Altitude Azimuth Distance (km) Brightness Sun altitude
Rises 17:46:06 0° 275° (W) 6,191 12.8 -9.5°
Reaches altitude 10° 17:52:01 10° 262° (W) 4,632 12.1 -10.6°
Maximum altitude 17:59:55 21° 221° (SW) 3,026 10.3 -11.9°
Drops below altitude 10° 18:05:32 10° 176° (S) 3,131 9.7 -12.9°
Sets 18:08:35 0° 159° (SSE) 3,735 9.9 -13.5°
